#timestamp,LO_Frequency,Hit,StdDev 
1569139215.6,286047000.2,N
1569139235.5,286046999.8,N
1569139255.3,286047000.2,N
1569139275.1,286047000.9,N
1569139295.9,286047000.5,N
1569139315.7,286047000.2,N
1569139335.6,286047002.8,Y
1569139355.4,286047002.5,P
1569139375.2,286047001.4,N
1569139395.1,286047002.3,N
1569139396.0,286047002.3,N
1569139415.8,286047002.5,Y
1569139435.7,286046998.3,P
1569139455.5,286046998.5,N
1569139475.3,286047000.1,N
1569139495.2,286047001.2,N
1569139515.0,286046998.4,N
1569139515.9,286046998.4,N
1569139535.8,286046998.8,N
1569139555.6,286046997.2,N
1569139575.4,286046996.9,N
1569139595.3,286046999.1,N
1569139615.1,286047000.7,N
1569139635.9,286047000.2,N
1569139655.7,286047000.3,N
1569139675.5,286046998.4,N
1569139695.4,286046998.5,N
1569139715.2,286046998.4,N
1569139735.0,286046996.5,N
1569139735.9,286046996.5,N
1569139755.8,286046999.0,N
1569139775.6,286046998.8,N
1569139795.5,286046999.3,N
1569139815.3,286047001.1,N
1569139835.1,286046999.9,N
1569139855.9,286047001.6,N
1569139875.7,286047001.3,N
1569139895.6,286047002.7,N
1569139915.4,286047002.4,N
1569139935.2,286047000.2,N
1569139955.1,286047000.0,N
1569139956.0,286047000.0,N
1569139975.8,286047000.6,N
1569139995.7,286047000.7,N
1569140015.5,286047002.7,N
1569140035.3,286047001.6,N
1569140055.2,286047000.6,N
1569140075.0,286047000.6,N
1569140075.9,286047000.6,N
1569140125.8,286047003.3,E
1569140135.7,286047001.5,N
1569140155.5,286047000.4,P
1569140175.4,286047000.1,N
1569140195.2,286046999.7,N
1569140215.0,286047001.1,N
1569140235.5,286046998.6,N
1569140255.4,286046998.6,N
1569140275.2,286046998.3,N
1569140295.1,286046998.6,N
1569140296.0,286046998.6,N
1569140315.8,286046999.5,N
1569140335.6,286046996.6,Y
1569140355.5,286046997.3,P
1569140375.3,286046999.5,N
1569140395.2,286046996.6,P
1569140415.9,286046996.8,N
1569140435.7,286046996.9,N
1569140455.6,286046999.2,N
1569140475.4,286046996.6,N
1569140495.2,286046997.9,N
1569140515.1,286046997.1,N
1569140535.8,286046999.2,N
1569140555.6,286046998.3,N
1569140575.4,286046998.7,N
1569140595.3,286046998.8,N
1569140615.1,286047000.9,N
1569140635.9,286047000.0,N
1569140655.7,286047000.0,N
1569140675.5,286046999.7,N
1569140695.4,286047000.1,N
1569140715.2,286047001.5,N
1569140735.0,286047001.8,N
1569140735.9,286047001.8,N
1569140755.8,286047002.0,N
1569140775.6,286047003.8,N
1569140795.5,286047003.5,N
1569140815.3,286047001.4,N
1569140835.1,286047001.4,N
1569140855.9,286047002.1,N
1569140875.7,286047001.5,N
1569140895.6,286047003.9,N
1569140915.4,286047003.9,N
1569140935.2,286047003.7,N
1569140955.1,286047003.7,N
1569140956.0,286047003.7,N
1569140975.8,286047004.3,N
1569140995.6,286047005.8,N
1569141015.5,286047003.0,N
1569141035.3,286047003.2,N
1569141055.2,286047006.0,N
1569141075.9,286047003.6,N
1569141095.7,286047004.1,N
1569141115.6,286047004.1,N
1569141135.4,286047004.4,N
1569141155.3,286047001.6,N
1569141175.1,286047000.0,N
1569141176.0,286047000.0,N
1569141195.8,286047000.4,N
1569141215.7,286047000.5,N
1569141235.5,286046999.7,N
1569141255.3,286047000.2,N
1569141275.2,286047002.3,N
1569141295.0,286047000.2,N
1569141295.9,286047000.2,N
1569141315.8,286047000.2,N
1569141335.6,286046999.9,N
1569141355.4,286047000.3,N
1569141375.3,286047000.7,N
1569141395.1,286046998.2,N
1569141415.9,286047000.4,N
1569141435.7,286046998.5,N
1569141455.5,286046999.2,N
1569141475.4,286046999.3,N
1569141495.2,286046999.5,N
1569141515.0,286046996.9,N
1569141515.9,286046996.9,N
1569141535.8,286046996.9,N
1569141555.6,286046996.9,N
1569141575.5,286046999.6,N
1569141595.3,286046996.6,N
1569141615.1,286046997.0,N
1569141635.9,286046996.8,N
1569141655.7,286046997.5,N
1569141675.6,286046997.3,N
1569141695.4,286046998.4,N
1569141715.2,286046999.1,N
1569141735.1,286046996.9,N
1569141736.0,286046996.9,N
1569141755.8,286046997.8,N
1569141775.6,286046997.0,N
1569141795.5,286046999.0,N
1569141815.3,286046998.9,N
1569141835.2,286046999.0,N
1569141855.9,286046997.0,N
1569141875.7,286046997.2,N
1569141895.6,286046997.4,N
1569141915.4,286046995.2,Y
1569141935.3,286046997.2,P
1569141955.1,286046997.0,P
1569141956.0,286046997.0,P
1569141975.8,286046999.0,N
1569141995.7,286046996.6,Y
1569142015.5,286047001.2,P
1569142035.4,286046999.9,N
1569142055.2,286046999.7,N
1569142075.0,286047000.3,N
1569142075.9,286047000.3,N
1569142095.8,286047000.9,N
1569142115.6,286047000.5,N
1569142135.4,286046999.9,N
1569142155.3,286047001.9,N
1569142175.1,286047002.7,N
1569142195.9,286047002.2,N
1569142215.7,286046998.1,N
1569142235.5,286047001.0,N
1569142255.4,286046999.4,N
1569142275.2,286046999.6,N
1569142295.0,286046996.7,N
1569142295.9,286046996.7,N
1569142315.8,286046999.6,N
1569142335.6,286046998.5,N
1569142355.5,286046999.6,N
1569142375.3,286046998.2,N
1569142395.1,286046999.4,N
1569142415.9,286046998.6,N
1569142435.7,286047000.3,N
1569142455.6,286046996.5,N
1569142475.4,286046999.2,N
1569142495.2,286046996.8,N
1569142515.1,286046996.7,N
1569142516.0,286046996.7,N
1569142535.8,286046996.5,N
1569142555.7,286046999.4,N
1569142575.5,286046997.0,N
1569142595.3,286046998.8,N
1569142615.2,286046998.3,N
1569142635.0,286047001.5,N
1569142635.9,286047001.5,N
1569142655.8,286047002.5,N
1569142675.6,286047001.5,N
1569142695.4,286047001.6,N
1569142715.3,286047004.3,N
1569142735.1,286047002.0,N
1569142755.8,286047003.8,N
1569142775.7,286047003.2,N
1569142795.5,286047002.9,N
